Simultaneous Nadir Overpasses (SNOs) Predictions

Prediction of SNOs between AQUA and GOES-15 Satellite Orbit:

Table of predicted SNOs for the next 14.0 days since TLE Epoch: 8/10/2012
Index Date Time (AQUA) AQUA Lat,Lon GOES-15 Lat,Lon Distance(km) Time Diff (sec)
1 08/12/2012 10:31:36 0.28,-134.02 0.44,-134.90 98.92 80
2 08/12/2012 22:53:00 -1.37,-139.22 -0.44,-134.88 493.62 80
3 08/14/2012 10:19:27 -0.36,-131.08 0.43,-134.83 425.63 80
4 08/14/2012 22:40:52 -0.76,-136.27 -0.43,-134.81 167.06 80
5 08/16/2012 22:28:45 -0.13,-133.34 -0.43,-134.73 158.23 80
6 08/17/2012 10:50:01 1.22,-138.50 0.42,-134.71 430.49 80
7 08/18/2012 22:16:39 0.45,-130.40 -0.42,-134.65 482.32 80
8 08/19/2012 10:37:56 0.61,-135.57 0.42,-134.63 107.01 80
9 08/21/2012 10:25:53 0.04,-132.64 0.42,-134.54 215.02 80
10 08/21/2012 22:47:19 -1.13,-137.85 -0.42,-134.50 380.53 80
11 08/23/2012 22:35:18 -0.52,-134.94 -0.42,-134.40 60.51 80




NCC Satellite Simultaneous Nadir Overpasses (SNOs) Prediction Service
